Voltar ao catálogo

SL-8 R/B

AtivoPO
NORAD 14966·ROCKET BODY·🇷🇺 Russia

Lançado May 11, 1984 de Plesetsk Cosmodrome

Loading…

Próximas Passagens (próximas 24 horas)

TLE

AtualizadoSource: Space-Track

Época: Sep 14, 2026, 21:07 UTC

1 14966U 84043B   26257.88020788  .00000102  00000-0  90832-4 0  9997
2 14966  82.9724 123.6969 0016427   7.6211   8.3202 13.74892917123623

Acompanhe SL-8 R/B em tempo real com AllMySat

Download on the App Store